Location: Unspecified
(0.0000°N, 0.0000°E)
Time: 03:19:21
(UTC+00:00)

STARLINK-2009 - Pass Details

Date: 24 February 2021
Orbit: 316 x 318 km, 53.1° (Epoch: 23 February)

Event Time Altitude Azimuth Distance (km) Brightness Sun altitude
Exits shadow 05:19:46 - 349° (N) 1,640 5.8 -13.2°
Reaches altitude 10° 05:20:54 10° 359° (N) 1,218 5.3 -12.9°
Maximum altitude 05:23:10 24° 56° (NE) 720 4.8 -12.3°
Drops below altitude 10° 05:25:28 10° 113° (ESE) 1,227 6.8 -11.8°
Sets 05:27:38 0° 128° (SE) 2,063 7.7 -11.2°
